Location: Albany
(35.0000°S, 118.0000°E)
Time: 20:21:20
(UTC-04:00)

Cosmos 1933 - Visible Passes

Search period start: 01 October 2014 00:00
Search period end: 11 October 2014 00:00
Orbit: 555 x 573 km, 82.5° (Epoch: 01 October)

Date Brightness Start Highest point End Pass type
(mag) Time Alt. Az. Time Alt. Az. Time Alt. Az.
06 Oct 5.8 08:02:46 10° SSE 08:03:07 12° SSE 08:03:07 12° SSE visible
06 Oct 6.7 09:39:08 10° SW 09:39:09 10° SW 09:39:09 10° SW visible
07 Oct 5.5 08:02:33 10° SSE 08:03:38 15° SSE 08:03:38 15° SSE visible
07 Oct 6.7 09:39:31 10° SW 09:39:40 11° SW 09:39:40 11° SW visible
08 Oct 5.1 08:02:25 10° SSE 08:04:11 21° SE 08:04:11 21° SE visible
08 Oct 6.7 09:40:01 10° SW 09:40:13 11° SW 09:40:13 11° SW visible
09 Oct 4.7 08:02:19 10° S 08:04:46 28° SE 08:04:46 28° SE visible
09 Oct 6.7 09:40:44 10° WSW 09:40:48 10° WSW 09:40:48 10° WSW visible
10 Oct 4.1 08:02:16 10° S 08:05:23 40° SE 08:05:23 40° SE visible
